Starlink 33584

operational
NORAD ID: 62761 Int'l Des: 2025-015 Owner: SPXS Country: US Constellation: starlink
LEOCIRCULAR

About Starlink 33584

Description loading...

Live Position

Loading 3D Globe...

Upcoming Passes

Altitude History

Altitude vs Time

uPlot chart will show altitude changes over time

Two-Line Element Set

1 62761U 25015D 25351.27161167 .00019490 00000-0 66847-3 0 9999
2 62761 53.1609 345.2061 0001312 85.4179 274.6972 15.30198726 51869
Epoch: Dec 17, 2025 • Age: 26 hours

Current Status

Altitude 492.7 km
Velocity 7.62 km/s
Sub-Earth Point -48.85°S, 1.11°E
Launch Date Jan 21, 2025
Age 0.9 years
Type internet

Technical Details

Classification Payload
Mass 575.00 kg
Dry Mass 530.00 kg
Total Mass 575.00 kg
Length 0.30 m
Diameter 4.10 m
Span 29.00 m
Shape Box + pan
Manufacturer SPXS
Bus Type Starlink V2MO
Phase Status In Orbit
Owner/State SPXS/US

Large Constellations

Loading constellations...